{"data":{"norad_id":59940,"intl_designator":"2024-106U","name":"STARLINK-31946","alt_names":[],"object_type":"PAYLOAD","status":"ACTIVE","operator":null,"country":"US","launch_date":"2024-06-01","launch_site_code":"AFETR","launch_vehicle":null,"mission":null,"orbit_class":"UNKNOWN","rcs_meters":null,"size_class":null,"mass_kg":null,"dimensions":null,"purposes":["comms"],"wikipedia_slug":null,"has_3d_model":false,"image_url":null,"decayed_at":null,"tle_current":{"epoch":"2026-05-25T00:44:03.591168Z","epoch_age_seconds":65658,"freshness":"FRESH","line1":"1 59940U 24106U   26145.03059712  .00000045  00000+0  11174-4 0  9991","line2":"2 59940  43.0009 261.7745 0001190 274.2522  85.8194 15.27575339102827","mean_motion":15.27575339,"eccentricity":0.000119,"inclination_deg":43.0009,"raan_deg":261.7745,"arg_perigee_deg":274.2522,"mean_anomaly_deg":85.8194,"bstar":1.1174e-5,"rev_number":10282,"period_min":94.267036344189,"perigee_km":482.24656997964,"apogee_km":483.87953559221,"semimajor_km":6861.2000527859,"source":"CELESTRAK","updated_at":"2026-05-25T13:38:19.125440Z"}}}